Weather History for Hurlburt Field, FL

Change the Weather History Date:

Friday, June 21, 2013

  Actual Average Record
Temperature  
Mean Temperature 78 °F -  
Max Temperature 86 °F 85 °F 91 °F (1998)
Min Temperature 71 °F 71 °F 66 °F (2007)
Cooling Degree Days 14    
Growing Degree Days 28 (Base 50)    
Moisture  
Dew Point 80 °F    
Average Humidity 100    
Maximum Humidity 100    
Minimum Humidity 100    
Precipitation  
Precipitation 0.00 in - - ()
Sea Level Pressure  
Sea Level Pressure 30.09 in    
Wind  
Wind Speed 6 mph (ENE)    
Max Wind Speed 12 mph    
Max Gust Speed -    
Visibility 10 miles    
Events Rain , Thunderstorm    
Averages and records for this station are not official NWS values.
T = Trace of Precipitation, MM = Missing Value Source: NWS Daily Summary

Daily Weather History Graph

Daily Weather History Graph

Search for Another Location

Airport:

Trip Planner

Search our weather history database for the weather conditions in past years. The results will help you decide how hot, cold, wet, or windy it might be!

Date:

Astronomy

Jun. 21, 2013 Rise Set
Actual Time 5:45 AM CDT 7:52 PM CDT
Civil Twilight 5:17 AM CDT 8:19 PM CDT
Nautical Twilight 4:43 AM CDT 8:53 PM CDT
Astronomical Twilight 4:07 AM CDT 9:29 PM CDT
Moon 6:06 PM CDT 3:54 AM CDT
Length of Visible Light 15h 02m
Length of Day
14h 06m
Waxing Gibbous, 95% of the Moon is Illuminated
Jun 21
Waxing Gibbous
Jun 23
Full
Jun 29
Last Quarter
Jul 8
New
Jul 15
First Quarter

Hourly Weather History & Observations

Time (CDT) Temp. Heat Index Dew Point Humidity Pressure Visibility Wind Dir Wind Speed Gust Speed Precip Events Conditions
12:02 AM 73.4 °F - 73.4 °F 100% 30.07 in 10.0 mi North 5.8 mph - N/A   Scattered Clouds
1:04 AM 73.4 °F - 73.4 °F 100% 30.07 in 10.0 mi North 5.8 mph - N/A   Partly Cloudy
2:00 AM 73.4 °F - 73.4 °F 100% 30.06 in 10.0 mi North 6.9 mph - N/A   Clear
2:55 AM 71.6 °F - 71.6 °F 100% 30.05 in 10.0 mi North 8.1 mph - N/A   Clear
4:12 AM 71.6 °F - 71.6 °F 100% 30.05 in 10.0 mi NE 5.8 mph - N/A   Clear
4:58 AM 72.7 °F - 72.7 °F 100% 30.06 in 10.0 mi ENE 5.8 mph - N/A   Clear
5:58 AM 72.0 °F - 72.0 °F 100% 30.08 in 10.0 mi NNE 4.6 mph - N/A   Clear
6:58 AM 73.6 °F - 73.6 °F 100% 30.09 in 10.0 mi ENE 8.1 mph - N/A   Clear
7:58 AM 77.5 °F - 77.5 °F 100% 30.12 in 10.0 mi ENE 11.5 mph - N/A   Clear
8:58 AM 80.2 °F 88.0 °F 80.2 °F 100% 30.12 in 10.0 mi East 9.2 mph - N/A   Clear
9:58 AM 82.8 °F 97.5 °F 82.8 °F 100% 30.13 in 10.0 mi East 10.4 mph - N/A   Clear
10:58 AM 84.7 °F 105.9 °F 84.7 °F 100% 30.13 in 10.0 mi ENE 11.5 mph - N/A   Clear
11:58 AM 86.4 °F 113.2 °F 86.4 °F 100% 30.13 in 10.0 mi ESE 9.2 mph - N/A   Partly Cloudy
12:58 PM 85.5 °F 109.1 °F 85.5 °F 100% 30.13 in 10.0 mi SSE 10.4 mph - N/A   Mostly Cloudy
1:30 PM 82.4 °F 96.1 °F 82.4 °F 100% 30.12 in 10.0 mi NNE 9.2 mph - N/A   Light Drizzle
1:39 PM 82.4 °F 96.1 °F 82.4 °F 100% 30.11 in 10.0 mi North 5.8 mph - N/A   Mostly Cloudy
1:58 PM 85.1 °F 107.5 °F 85.1 °F 100% 30.11 in 10.0 mi Variable 2.3 mph - 0.00 in   Mostly Cloudy
1:59 PM 84.2 °F 103.5 °F 84.2 °F 100% 30.10 in 10.0 mi Variable 3.5 mph - N/A   Light Drizzle
2:04 PM 84.2 °F 103.5 °F 84.2 °F 100% 30.10 in 10.0 mi ESE 5.8 mph - N/A Thunderstorm Light Drizzle
2:09 PM 84.2 °F 103.5 °F 84.2 °F 100% 30.10 in 10.0 mi SSE 4.6 mph - N/A Thunderstorm Light Drizzle
2:18 PM 82.4 °F 96.1 °F 82.4 °F 100% 30.11 in 10.0 mi SSE 4.6 mph - N/A Thunderstorm Thunderstorm
2:55 PM 82.4 °F 96.1 °F 82.4 °F 100% 30.10 in 10.0 mi ESE 1.2 mph - N/A Thunderstorm Mostly Cloudy
3:58 PM 86.2 °F 112.4 °F 86.2 °F 100% 30.08 in 10.0 mi Variable 2.3 mph - N/A   Scattered Clouds
4:58 PM 82.9 °F 98.3 °F 82.9 °F 100% 30.08 in 10.0 mi SW 3.5 mph - N/A   Scattered Clouds
5:58 PM 84.4 °F 104.3 °F 84.4 °F 100% 30.07 in 10.0 mi South 5.8 mph - N/A   Clear
6:58 PM 83.5 °F 100.5 °F 83.5 °F 100% 30.07 in 10.0 mi South 6.9 mph - N/A   Partly Cloudy
7:58 PM 81.3 °F 92.0 °F 81.3 °F 100% 30.08 in 10.0 mi SSE 4.6 mph - N/A   Clear
7:59 PM 80.6 °F 89.3 °F 80.6 °F 100% 30.07 in 10.0 mi SSE 4.6 mph - N/A Rain Light Rain
8:25 PM 80.6 °F 89.3 °F 80.6 °F 100% 30.07 in 10.0 mi SE 3.5 mph - N/A   Clear
8:58 PM 80.6 °F 89.3 °F 80.6 °F 100% 30.09 in 10.0 mi North 2.3 mph - 0.00 in   Clear
9:35 PM 80.6 °F 89.3 °F 80.6 °F 100% 30.09 in 10.0 mi North 2.3 mph - N/A Rain Light Rain
9:36 PM 80.6 °F 89.3 °F 80.6 °F 100% 30.09 in 10.0 mi North 2.3 mph - N/A   Clear
9:37 PM 80.6 °F 89.3 °F 80.6 °F 100% 30.09 in 10.0 mi North 2.3 mph - N/A   Light Drizzle
9:48 PM 78.8 °F - 78.8 °F 100% 30.09 in 10.0 mi North 3.5 mph - N/A   Clear
9:58 PM 78.1 °F - 78.1 °F 100% 30.10 in 10.0 mi Calm Calm - 0.00 in   Clear
10:58 PM 75.9 °F - 75.9 °F 100% 30.10 in 10.0 mi Calm Calm - N/A   Clear
11:58 PM 75.0 °F - 75.0 °F 100% 30.09 in 10.0 mi North 2.3 mph - N/A   Clear